TimeCST,TemperatureF,Dew PointF,Humidity,Sea Level PressureIn,VisibilityMPH,Wind Direction,Wind SpeedMPH,Gust SpeedMPH,PrecipitationIn,Events,Conditions,WindDirDegrees,DateUTC
12:56 AM,46.0,39.0,76,30.29,10.0,NNW,5.8,-,N/A,,Clear,340,2012-11-18 06:56:00
1:56 AM,46.0,39.9,79,30.27,10.0,NNE,4.6,-,N/A,,Scattered Clouds,20,2012-11-18 07:56:00
2:56 AM,43.0,37.9,82,30.26,10.0,NNW,4.6,-,N/A,,Clear,340,2012-11-18 08:56:00
3:56 AM,44.1,39.0,82,30.27,10.0,NNW,5.8,-,N/A,,Mostly Cloudy,340,2012-11-18 09:56:00
4:56 AM,43.0,37.9,82,30.28,10.0,North,3.5,-,N/A,,Clear,350,2012-11-18 10:56:00
5:56 AM,45.0,39.0,80,30.28,10.0,North,6.9,-,N/A,,Mostly Cloudy,10,2012-11-18 11:56:00
6:56 AM,48.0,39.0,71,30.30,10.0,Calm,Calm,-,N/A,,Mostly Cloudy,0,2012-11-18 12:56:00
7:56 AM,53.1,39.9,61,30.30,10.0,NE,9.2,-,N/A,,Clear,50,2012-11-18 13:56:00
8:56 AM,55.0,42.1,62,30.30,10.0,ENE,10.4,-,N/A,,Partly Cloudy,70,2012-11-18 14:56:00
9:56 AM,59.0,44.1,58,30.32,10.0,ENE,6.9,-,N/A,,Scattered Clouds,70,2012-11-18 15:56:00
10:56 AM,63.0,45.0,52,30.30,10.0,Variable,5.8,-,N/A,,Scattered Clouds,0,2012-11-18 16:56:00
11:56 AM,66.0,44.1,45,30.27,10.0,NNE,4.6,-,N/A,,Scattered Clouds,20,2012-11-18 17:56:00
12:56 PM,66.9,45.0,45,30.25,10.0,ENE,5.8,-,N/A,,Partly Cloudy,60,2012-11-18 18:56:00
1:56 PM,69.1,45.0,42,30.22,10.0,North,11.5,-,N/A,,Clear,10,2012-11-18 19:56:00
2:56 PM,69.1,45.0,42,30.22,10.0,NNE,12.7,-,N/A,,Partly Cloudy,20,2012-11-18 20:56:00
3:56 PM,68.0,46.0,45,30.22,10.0,NE,8.1,-,N/A,,Clear,40,2012-11-18 21:56:00
4:56 PM,60.1,48.0,64,30.24,10.0,Calm,Calm,-,N/A,,Partly Cloudy,0,2012-11-18 22:56:00
5:56 PM,55.0,48.0,77,30.25,10.0,NNE,3.5,-,N/A,,Partly Cloudy,20,2012-11-18 23:56:00
6:56 PM,55.0,46.9,74,30.26,10.0,North,3.5,-,N/A,,Clear,360,2012-11-19 00:56:00
7:56 PM,53.1,46.9,80,30.28,10.0,NNW,4.6,-,N/A,,Clear,340,2012-11-19 01:56:00
8:28 PM,51.8,46.4,82,30.27,10.0,North,3.5,-,N/A,,Clear,360,2012-11-19 02:28:00
8:56 PM,53.1,46.0,77,30.28,10.0,North,4.6,-,N/A,,Clear,360,2012-11-19 02:56:00
9:56 PM,54.0,46.0,75,30.28,10.0,North,5.8,-,N/A,,Clear,360,2012-11-19 03:56:00
10:56 PM,51.1,45.0,80,30.28,10.0,North,4.6,-,N/A,,Clear,360,2012-11-19 04:56:00
11:56 PM,52.0,44.1,74,30.27,10.0,North,6.9,-,N/A,,Clear,10,2012-11-19 05:56:00